Location: Hanmanchip?lem
(16.7885°N, 80.2575°E)
Time: 07:27:42
(UTC+00:00)

Cosmos 1745 Rocket - Pass Details

Date: 26 September 2023
Orbit: 951 x 998 km, 83.0° (Epoch: 29 November)

Event Time Altitude Azimuth Distance (km) Brightness Sun altitude
Rises 23:58:14 0° 196° (SSW) 3,649 6.8 -8.0°
Reaches altitude 10° 00:00:48 10° 201° (SSW) 2,710 6.1 -7.4°
Maximum altitude 00:06:47 50° 275° (W) 1,232 4.2 -6.0°
Drops below altitude 10° 00:12:51 10° 350° (N) 2,745 6.3 -4.5°
Sets 00:15:28 0° 355° (N) 3,700 7.0 -3.9°
